Location: Aldenham
(51.6667°N, 0.3500°W)
Time: 03:02:54
(UTC+00:00)

Altair - Pass Details

Date: 21 February 2026
Orbit: 1502 x 1682 km, 47.2° (Epoch: 7 March)

Event Time Altitude Azimuth Distance (km) Brightness Sun altitude
Rises 01:44:18 0° 179° (S) 4,623 - -45.1°
Reaches altitude 10° 01:48:59 10° 159° (SSE) 3,646 - -44.7°
Maximum altitude 01:53:40 15° 127° (SE) 3,259 - -44.3°
Exits shadow 01:55:14 15° 116° (ESE) 3,312 9.3 -44.2°
Drops below altitude 10° 01:58:23 10° 96° (E) 3,683 9.7 -43.9°
Sets 02:03:07 0° 75° (ENE) 4,695 10.6 -43.4°
